User: anonymous   Login
Location: Caltech
(34.1382°N, 118.1253°W)
Time: 18:51:05
(UTC-07:00)
Language:

RESURS DK-1 - Orbit

View from above orbital plane
View from above orbital plane
View from above satellite
View from above satellite

Ground track
Ground track

The orbit data is extracted from the following two-line orbital elements,

1 29228U 06021A   17291.82901295  .00000186  00000-0  21438-4 0  9995
2 29228  69.9342 143.4948 0004231 193.2059 166.8992 15.02226104626660
Epoch (UTC): 18 October 2017 19:53:46
Eccentricity: 0.0004231
inclination: 69.9342°
perigee height: 557 km
apogee height: 563 km
right ascension of ascending node: 143.4948°
argument of perigee: 193.2059°
revolutions per day: 15.02226104
mean anomaly at epoch: 166.8992°
orbit number at epoch: 62666

The dashed part of the orbit path shows where the satellite is in the earth's shadow,  

DLR